Location: Nelson
(41.2830°S, 173.2830°E)
Time: 18:53:32
(UTC+12:00)

Genesis I - Pass Details

Date: 14 May 2021
Orbit: 479 x 540 km, 64.5° (Epoch: 19 June)

Event Time Altitude Azimuth Distance (km) Brightness Sun altitude
Rises 18:50:27 0° 316° (NW) 2,661 7.7 -17.2°
Reaches altitude 10° 18:52:42 10° 310° (NW) 1,769 6.8 -17.6°
Maximum altitude 18:56:34 50° 234° (SW) 674 4.0 -18.3°
Enters shadow 18:58:57 21° 165° (SSE) 1,212 4.8 -18.8°
